Vorticity
15 9 2 8 12 2 1 8 6 4 7 7 9 10 10 12 11 8 6 5 4 4 5 7 6 4 4 7 9 8 6 6 8 12 10 9 13 12 10 13 22 30 32 27 12 -0 1 0 -1 10 16 11 9 12 24 38 44 45 39 33 32 25 15
19 17 6 8 11 -1 -0 9 6 3 8 7 6 7 8 9 9 9 6 4 4 3 4 6 6 4 3 7 9 7 6 6 8 11 10 9 11 11 11 12 20 30 31 29 20 5 0 -0 -0 7 14 12 10 12 19 30 41 47 44 37 32 29 21
18 23 9 5 8 -3 -0 10 6 4 7 6 3 3 5 4 2 4 7 6 4 2 3 5 5 4 3 6 9 7 6 6 8 11 10 10 10 10 13 12 18 29 32 29 25 11 2 0 2 7 12 12 9 10 13 20 33 43 47 45 35 30 26
18 27 10 2 4 -3 2 10 4 5 7 4 3 0 2 5 0 1 5 7 6 2 2 4 5 4 3 5 7 7 6 6 8 10 11 11 10 10 13 14 17 28 31 29 26 16 4 -0 3 7 11 11 9 9 12 16 26 35 43 49 43 34 29
22 26 2 -2 6 -1 4 10 3 6 8 2 1 -0 2 6 4 4 7 7 6 3 1 3 5 4 3 4 6 6 7 8 7 9 11 10 9 10 13 14 19 28 32 30 26 18 8 2 2 5 8 10 9 12 15 17 24 32 38 45 47 41 33
17 22 1 0 10 1 3 9 4 7 6 -1 2 3 1 6 7 7 8 7 6 3 1 4 6 6 5 3 5 6 7 8 8 9 10 9 9 10 13 15 21 29 32 32 27 17 9 4 2 3 7 8 10 15 18 17 20 30 39 43 46 45 39
9 19 12 7 7 1 5 8 3 7 5 -1 4 6 1 4 8 7 3 2 4 3 1 1 2 6 8 5 5 6 6 8 9 10 10 9 9 11 13 17 24 29 32 34 30 17 7 3 1 2 5 9 14 17 15 14 14 22 38 47 46 46 43
8 15 17 13 6 -1 4 6 1 3 3 2 5 4 2 4 8 8 3 -1 2 4 1 -3 -4 1 6 7 6 5 6 9 9 10 11 9 9 11 13 18 26 30 33 36 32 17 6 2 1 3 7 12 18 15 7 8 13 15 31 50 50 46 45
10 12 12 14 12 3 -0 2 3 4 3 5 5 1 2 5 6 7 6 1 0 2 1 -0 -1 -0 3 7 7 5 7 10 8 10 11 8 8 10 12 20 28 31 34 38 32 16 5 3 1 2 9 16 17 11 2 4 12 15 25 45 52 50 47
8 10 9 13 19 15 7 2 4 7 4 1 1 2 4 6 3 4 6 4 1 -1 -1 3 5 2 2 7 8 5 7 10 9 9 10 8 9 10 11 21 31 32 35 38 31 15 3 2 3 4 12 19 14 6 1 3 11 18 26 39 49 53 50
9 8 7 8 13 17 22 18 5 1 4 1 1 6 8 6 3 2 4 5 3 0 2 7 8 2 1 6 7 4 7 11 9 9 10 9 10 11 11 21 33 36 37 36 27 12 2 1 4 7 14 17 10 2 2 7 16 23 28 36 44 50 52
13 8 3 2 2 6 22 30 14 2 4 4 4 9 10 8 4 3 4 4 3 3 5 9 8 0 -1 5 4 1 8 13 9 7 10 11 10 11 11 19 31 37 39 36 22 8 3 2 5 9 11 10 5 4 7 11 19 26 29 36 44 48 51
10 12 10 5 2 -0 7 17 16 10 4 -1 3 11 12 9 4 2 6 6 3 3 4 8 7 -2 -3 5 3 1 10 15 9 7 11 12 11 9 11 19 29 34 38 34 17 6 4 4 6 8 7 5 5 7 10 10 14 24 32 38 44 48 50
4 9 13 11 5 4 5 5 9 14 4 -6 4 13 12 9 2 -2 5 6 2 2 3 7 6 -3 0 9 3 2 13 14 8 9 13 12 10 9 11 19 28 33 36 29 14 5 4 5 7 7 4 8 13 10 8 8 10 20 34 40 42 47 53
6 4 8 12 7 4 7 4 5 11 4 -3 6 11 10 11 2 -3 6 5 -1 2 4 5 4 0 5 8 1 3 14 13 7 10 13 11 9 9 11 17 27 34 36 27 11 3 4 6 6 5 5 12 14 8 3 5 11 21 33 41 40 44 53
11 7 6 11 9 2 2 5 5 4 -1 0 9 8 9 13 3 -2 6 4 -1 4 5 3 5 5 5 3 -0 6 14 12 7 9 13 11 8 9 12 15 25 34 37 28 11 2 5 7 4 3 7 8 5 3 3 2 11 25 33 38 38 38 49
8 11 8 9 10 7 5 6 6 5 3 6 11 7 8 13 7 3 5 0 -0 5 4 2 5 5 1 -1 2 9 13 12 8 9 13 12 8 9 12 14 23 32 36 30 15 6 6 5 3 4 8 6 2 5 7 4 13 30 35 37 37 35 43
6 9 10 8 9 11 12 10 11 15 15 12 10 7 9 13 14 14 9 1 1 4 2 3 5 2 -1 0 5 9 12 11 8 9 14 12 8 10 11 13 23 31 34 28 14 8 7 2 1 6 8 7 6 8 9 7 16 31 36 37 37 35 40
6 7 10 10 9 9 13 14 14 17 15 10 8 9 10 12 15 18 11 3 5 5 2 4 5 1 -1 1 5 10 12 10 8 9 14 10 7 12 11 11 22 32 37 30 13 5 7 3 1 6 8 6 7 10 10 9 17 32 38 39 38 36 40
8 7 8 10 10 8 8 8 9 10 9 8 8 10 12 13 13 15 12 5 5 5 3 6 7 3 1 2 6 10 11 10 8 9 12 10 7 13 13 10 18 31 40 35 16 3 5 4 1 5 8 6 6 10 9 7 17 31 36 39 40 37 41
11 9 7 9 9 8 7 5 4 7 8 8 8 9 12 14 13 14 12 5 3 4 5 8 7 5 4 4 7 11 11 10 9 8 11 11 8 12 15 11 15 28 40 38 23 8 4 4 1 4 9 8 7 10 7 5 15 28 32 39 42 38 43
14 12 8 7 8 8 8 6 5 7 8 8 7 7 10 11 11 14 12 5 3 5 6 7 7 6 6 5 7 11 11 9 8 8 10 11 9 12 15 11 12 25 38 40 29 12 4 3 3 5 10 10 6 7 6 6 14 24 32 41 44 41 47
15 16 11 8 6 7 10 9 7 7 8 7 5 4 5 9 11 15 15 8 4 5 5 6 8 7 7 7 7 10 12 10 7 8 10 11 10 12 14 11 11 20 34 42 34 15 3 3 5 6 9 10 4 3 6 8 12 17 27 40 45 43 49
13 16 15 12 8 5 7 10 10 8 6 5 4 1 2 8 12 16 18 12 5 5 6 7 8 8 7 7 6 9 12 10 5 6 11 12 10 12 13 11 11 17 30 41 37 18 3 3 7 7 8 8 4 3 4 6 10 12 16 31 44 45 49
10 13 15 15 13 8 6 7 10 9 4 2 3 2 2 7 12 15 18 15 7 6 7 5 6 9 7 5 7 11 12 9 5 7 13 13 10 9 12 11 10 14 26 40 41 23 5 5 10 9 8 8 5 6 6 1 4 12 11 15 33 44 45
6 10 14 15 16 15 11 6 6 7 6 2 -0 0 2 6 10 14 17 17 12 8 6 4 5 8 7 4 8 12 10 7 6 9 13 13 9 8 10 11 10 11 20 37 45 30 8 4 9 9 9 10 6 9 13 3 -4 6 13 9 15 31 41
7 7 11 13 14 17 16 13 7 3 4 2 -3 -2 2 4 8 13 16 18 17 9 4 4 5 6 6 6 8 11 10 8 8 9 12 11 8 8 11 11 10 10 14 29 46 38 14 4 8 9 10 13 9 6 13 11 -2 -3 8 11 8 14 27
6 5 11 13 13 13 13 15 13 7 3 0 -3 -2 3 4 8 13 16 19 18 9 4 6 6 5 5 7 8 10 10 9 7 8 10 10 8 10 13 11 9 10 10 20 39 44 25 7 6 9 8 11 12 7 6 12 10 2 3 10 11 10 15
0 2 11 13 12 13 11 9 14 14 9 6 4 3 5 7 10 14 17 19 17 10 5 6 5 4 5 7 8 10 10 8 6 6 9 10 9 10 14 11 8 10 10 13 29 44 36 14 4 7 9 7 10 11 6 5 11 11 6 7 11 11 12
3 2 11 14 11 13 11 6 8 11 10 11 11 8 8 11 13 14 18 20 16 9 6 5 3 3 5 6 8 11 10 7 5 5 8 10 9 11 15 12 8 9 10 10 18 36 43 28 7 3 9 8 6 9 10 7 8 9 6 8 13 13 12
13 5 9 13 12 12 12 7 5 7 9 11 12 11 11 13 14 14 18 20 15 9 7 5 3 2 5 7 9 10 9 7 5 6 8 9 9 12 16 14 9 7 9 9 12 25 41 40 20 4 5 10 7 5 8 10 11 10 7 7 11 12 13
18 10 7 10 10 10 11 8 4 6 10 12 12 12 12 13 13 15 18 19 14 8 7 5 2 2 5 7 9 10 9 7 5 6 8 9 9 12 15 15 10 7 7 9 9 15 32 44 35 14 3 6 9 6 5 7 10 11 11 11 9 9 10
23 16 9 8 8 7 8 8 7 9 11 11 12 12 12 12 14 15 18 18 13 9 8 5 2 3 5 7 9 11 10 8 6 7 8 9 10 12 15 16 12 7 7 9 9 9 20 38 43 29 10 3 6 8 6 6 6 6 9 14 14 10 7
26 20 14 13 10 4 4 8 11 12 13 12 13 13 12 14 15 16 19 18 13 9 8 4 1 3 6 8 10 11 10 8 7 7 8 8 9 12 15 16 14 10 7 8 10 9 11 25 42 42 24 7 3 6 7 6 6 5 5 8 13 12 9
31 28 25 22 14 6 7 12 14 14 15 14 13 13 14 15 17 18 20 18 11 7 7 4 2 3 5 8 11 11 10 9 8 7 8 8 8 12 15 16 15 12 8 7 9 10 9 13 29 44 39 21 5 3 7 8 6 5 5 4 7 11 12
33 31 26 23 18 14 16 18 16 15 16 14 13 16 16 17 19 21 21 15 8 6 6 3 2 4 6 9 11 11 9 9 8 7 8 7 8 12 15 16 15 13 10 7 7 10 10 9 17 33 44 39 20 4 2 8 9 7 5 3 3 7 10
Height
5433 5431 5430 5428 5426 5424 5422 5419 5417 5414 5411 5408 5405 5402 5398 5395 5392 5388 5384 5380 5375 5371 5366 5360 5355 5349 5343 5338 5332 5325 5319 5312 5305 5298 5290 5283 5277 5270 5262 5257 5253 5250 5249 5245 5238 5236 5235 5231 5228 5226 5222 5220 5219 5216 5214 5213 5212 5212 5214 5217 5222 5227 5232
5427 5426 5424 5422 5420 5418 5416 5414 5412 5409 5406 5403 5400 5396 5393 5390 5387 5384 5380 5375 5371 5366 5362 5356 5350 5345 5340 5334 5327 5321 5315 5309 5301 5294 5288 5280 5273 5267 5260 5253 5249 5245 5243 5242 5237 5232 5230 5228 5225 5223 5220 5217 5216 5213 5211 5209 5208 5208 5209 5211 5214 5219 5225
5421 5420 5418 5416 5414 5412 5410 5408 5406 5403 5401 5397 5394 5391 5388 5385 5382 5379 5375 5370 5366 5362 5357 5352 5347 5341 5336 5330 5324 5318 5311 5305 5298 5291 5285 5278 5270 5264 5257 5250 5244 5240 5237 5237 5234 5229 5226 5224 5222 5219 5217 5214 5212 5210 5207 5205 5203 5203 5204 5205 5207 5211 5217
5415 5413 5412 5410 5408 5406 5404 5402 5400 5398 5395 5392 5389 5386 5383 5380 5377 5374 5370 5366 5362 5357 5353 5348 5343 5338 5333 5327 5321 5315 5308 5300 5294 5287 5281 5275 5267 5260 5254 5247 5240 5235 5231 5230 5229 5226 5222 5220 5219 5216 5214 5211 5209 5206 5203 5201 5199 5198 5198 5199 5200 5203 5208
5408 5407 5406 5404 5402 5400 5398 5396 5394 5392 5390 5387 5384 5381 5378 5375 5373 5369 5366 5361 5357 5353 5348 5344 5339 5334 5329 5324 5318 5311 5304 5297 5290 5284 5277 5271 5265 5257 5251 5244 5237 5231 5226 5224 5223 5221 5218 5216 5215 5213 5210 5207 5205 5203 5200 5197 5195 5194 5193 5193 5194 5196 5200
5402 5401 5400 5398 5396 5394 5392 5391 5389 5386 5384 5382 5379 5376 5373 5370 5367 5364 5361 5357 5352 5348 5344 5340 5335 5330 5325 5320 5314 5307 5300 5294 5287 5281 5274 5268 5261 5255 5248 5241 5233 5227 5221 5218 5216 5215 5214 5212 5210 5209 5207 5203 5199 5197 5195 5193 5191 5189 5187 5187 5187 5188 5191
5397 5395 5393 5392 5390 5389 5386 5385 5383 5381 5378 5376 5374 5371 5368 5365 5362 5359 5356 5352 5348 5344 5340 5336 5331 5327 5321 5315 5310 5303 5297 5291 5284 5278 5271 5264 5258 5251 5244 5237 5229 5222 5217 5213 5212 5210 5209 5208 5206 5204 5202 5199 5195 5192 5189 5186 5186 5185 5182 5180 5181 5181 5183
5391 5389 5388 5386 5385 5383 5381 5379 5377 5375 5373 5371 5369 5366 5363 5360 5357 5354 5350 5347 5343 5339 5335 5331 5327 5322 5317 5311 5306 5300 5293 5287 5281 5275 5268 5261 5255 5248 5241 5234 5226 5219 5213 5209 5207 5206 5205 5204 5202 5200 5198 5194 5190 5187 5184 5181 5179 5179 5177 5174 5174 5174 5175
5385 5384 5382 5380 5379 5377 5376 5374 5371 5370 5368 5366 5363 5360 5358 5355 5352 5349 5346 5341 5338 5335 5331 5327 5323 5318 5313 5308 5302 5296 5290 5283 5277 5271 5265 5259 5252 5246 5239 5232 5224 5216 5210 5206 5203 5202 5201 5200 5198 5195 5193 5190 5186 5183 5180 5177 5174 5172 5169 5168 5167 5167 5167
5378 5377 5376 5374 5373 5371 5370 5368 5366 5364 5362 5360 5358 5355 5352 5350 5347 5344 5341 5337 5333 5330 5326 5323 5318 5314 5309 5304 5298 5292 5286 5280 5273 5267 5261 5255 5249 5243 5237 5230 5221 5213 5207 5203 5200 5199 5198 5197 5195 5191 5188 5186 5182 5178 5175 5172 5169 5165 5162 5160 5160 5159 5159
5371 5371 5370 5368 5367 5365 5364 5362 5360 5358 5357 5355 5353 5350 5347 5345 5342 5339 5336 5333 5329 5325 5322 5318 5314 5310 5305 5300 5295 5289 5283 5276 5270 5263 5257 5250 5244 5238 5232 5226 5219 5211 5204 5200 5198 5196 5194 5193 5191 5187 5183 5180 5176 5172 5170 5167 5162 5159 5155 5153 5152 5151 5151
5364 5363 5363 5362 5361 5359 5358 5356 5355 5353 5351 5349 5347 5345 5342 5339 5337 5335 5332 5329 5325 5321 5317 5314 5310 5306 5302 5297 5292 5286 5280 5273 5266 5260 5254 5247 5240 5233 5227 5221 5215 5209 5203 5198 5196 5194 5191 5189 5187 5184 5179 5174 5171 5169 5167 5163 5157 5152 5148 5145 5144 5143 5142
5357 5356 5356 5356 5355 5353 5352 5351 5349 5347 5345 5343 5341 5339 5337 5335 5332 5330 5327 5324 5321 5317 5314 5310 5306 5302 5298 5293 5288 5283 5277 5270 5263 5257 5250 5243 5237 5230 5224 5218 5211 5205 5200 5197 5194 5192 5188 5185 5183 5180 5174 5170 5168 5166 5164 5159 5152 5146 5141 5138 5136 5135 5135
5350 5350 5349 5349 5349 5347 5346 5345 5343 5341 5340 5337 5336 5334 5332 5330 5327 5325 5322 5320 5317 5314 5310 5307 5303 5299 5294 5290 5285 5279 5274 5267 5261 5254 5247 5240 5233 5227 5221 5214 5207 5201 5197 5194 5191 5188 5185 5182 5179 5175 5171 5168 5166 5164 5160 5154 5148 5141 5135 5131 5128 5128 5127
5343 5343 5342 5342 5342 5341 5340 5338 5337 5336 5334 5332 5330 5328 5326 5325 5323 5320 5318 5315 5313 5310 5306 5303 5299 5296 5291 5286 5281 5276 5271 5265 5258 5252 5245 5238 5231 5224 5218 5212 5206 5199 5194 5191 5188 5185 5182 5180 5176 5172 5169 5166 5164 5161 5155 5149 5143 5136 5130 5125 5122 5121 5121
5336 5336 5335 5335 5335 5335 5333 5332 5331 5330 5328 5326 5324 5323 5321 5319 5317 5315 5313 5311 5308 5305 5303 5299 5296 5292 5288 5283 5278 5273 5268 5262 5256 5250 5244 5237 5229 5222 5216 5210 5204 5198 5193 5189 5186 5183 5181 5178 5174 5170 5166 5163 5160 5156 5150 5145 5138 5131 5125 5120 5116 5115 5115
5329 5328 5328 5327 5327 5327 5327 5326 5324 5323 5322 5321 5319 5317 5315 5313 5312 5310 5308 5306 5304 5301 5298 5296 5293 5289 5285 5280 5275 5270 5265 5260 5254 5248 5242 5235 5228 5221 5215 5208 5201 5196 5192 5188 5185 5182 5179 5176 5172 5168 5164 5161 5157 5152 5147 5142 5135 5127 5120 5115 5111 5109 5109
5323 5322 5321 5320 5320 5320 5320 5319 5318 5317 5316 5315 5313 5312 5310 5308 5306 5305 5303 5301 5299 5297 5294 5292 5289 5285 5282 5277 5272 5267 5262 5257 5252 5246 5240 5234 5227 5220 5213 5207 5200 5193 5188 5185 5183 5180 5178 5174 5170 5167 5163 5159 5156 5151 5146 5140 5132 5124 5116 5110 5106 5104 5103
5316 5315 5315 5314 5313 5313 5313 5312 5311 5311 5311 5309 5308 5307 5305 5303 5301 5300 5298 5296 5294 5292 5290 5287 5284 5281 5278 5274 5269 5264 5259 5254 5249 5243 5238 5232 5226 5219 5212 5205 5199 5192 5187 5183 5180 5178 5175 5172 5169 5166 5163 5159 5155 5150 5145 5138 5130 5121 5113 5107 5102 5099 5099
5308 5308 5308 5308 5307 5306 5306 5306 5305 5305 5305 5304 5303 5302 5300 5298 5296 5294 5293 5292 5290 5288 5285 5283 5280 5277 5274 5270 5265 5261 5255 5250 5246 5241 5235 5230 5224 5217 5211 5204 5197 5192 5186 5182 5179 5177 5174 5171 5169 5167 5163 5159 5154 5150 5144 5138 5129 5119 5111 5104 5099 5096 5095
5301 5301 5302 5302 5301 5300 5300 5300 5299 5299 5299 5299 5298 5297 5295 5293 5291 5290 5288 5287 5285 5283 5281 5278 5276 5273 5270 5266 5262 5257 5252 5248 5243 5238 5233 5228 5222 5215 5210 5204 5197 5191 5185 5181 5179 5176 5174 5171 5169 5166 5162 5158 5154 5149 5144 5137 5129 5119 5110 5103 5098 5094 5093
5294 5295 5295 5296 5296 5295 5294 5294 5294 5294 5294 5294 5293 5291 5290 5288 5286 5285 5283 5282 5280 5279 5276 5274 5272 5269 5266 5263 5258 5254 5250 5245 5240 5235 5230 5225 5219 5213 5208 5203 5197 5190 5185 5180 5177 5175 5173 5171 5169 5166 5162 5157 5153 5149 5144 5138 5130 5121 5112 5104 5098 5095 5093
5288 5288 5289 5289 5289 5289 5288 5288 5288 5288 5289 5289 5287 5286 5284 5283 5281 5280 5279 5277 5276 5274 5272 5270 5268 5265 5262 5259 5255 5251 5247 5242 5238 5233 5228 5222 5217 5212 5207 5203 5197 5190 5184 5179 5176 5174 5172 5171 5169 5166 5162 5158 5154 5149 5144 5139 5132 5124 5115 5107 5101 5097 5095
5283 5283 5283 5283 5283 5283 5283 5283 5283 5283 5283 5283 5282 5281 5280 5278 5276 5275 5274 5273 5271 5270 5268 5266 5264 5262 5259 5256 5252 5248 5244 5240 5235 5230 5225 5220 5215 5211 5206 5202 5196 5189 5183 5178 5175 5173 5172 5170 5169 5166 5163 5159 5155 5150 5145 5140 5134 5127 5120 5112 5106 5101 5099
5277 5277 5277 5277 5277 5277 5278 5278 5278 5278 5278 5278 5277 5276 5275 5273 5272 5271 5269 5268 5267 5266 5264 5262 5261 5259 5256 5253 5249 5245 5241 5237 5233 5228 5223 5219 5214 5210 5206 5201 5195 5189 5183 5177 5174 5172 5171 5170 5168 5167 5164 5161 5157 5152 5146 5141 5137 5131 5125 5118 5112 5108 5105
5272 5272 5271 5271 5271 5272 5272 5272 5272 5272 5272 5272 5272 5271 5270 5269 5267 5266 5265 5264 5263 5262 5260 5259 5257 5255 5253 5250 5246 5242 5239 5235 5230 5226 5222 5218 5214 5210 5205 5200 5194 5188 5183 5178 5174 5172 5170 5169 5168 5166 5165 5162 5158 5154 5149 5144 5140 5135 5130 5124 5119 5115 5112
5266 5266 5266 5266 5266 5267 5267 5267 5267 5267 5267 5267 5267 5267 5265 5264 5262 5261 5260 5259 5258 5257 5256 5255 5254 5252 5250 5247 5243 5240 5236 5232 5228 5224 5221 5217 5213 5209 5204 5199 5193 5188 5183 5178 5174 5171 5170 5168 5167 5166 5165 5162 5160 5157 5153 5148 5144 5140 5135 5131 5126 5123 5120
5260 5260 5260 5260 5261 5261 5262 5262 5262 5261 5261 5262 5262 5262 5261 5259 5258 5257 5256 5255 5254 5253 5253 5252 5251 5249 5246 5244 5241 5237 5234 5230 5227 5223 5220 5216 5212 5208 5203 5198 5193 5188 5183 5178 5174 5171 5169 5168 5167 5165 5164 5163 5161 5158 5156 5152 5148 5144 5141 5137 5134 5131 5128
5254 5254 5255 5255 5256 5256 5256 5256 5256 5256 5257 5257 5257 5256 5256 5255 5253 5252 5251 5250 5250 5249 5249 5248 5247 5246 5243 5241 5238 5235 5232 5229 5225 5222 5219 5215 5211 5207 5202 5198 5193 5188 5183 5179 5175 5171 5169 5167 5166 5165 5164 5163 5161 5159 5157 5155 5152 5149 5146 5143 5140 5138 5136
5248 5248 5249 5250 5250 5251 5251 5251 5251 5251 5252 5252 5252 5252 5251 5250 5249 5248 5247 5246 5246 5245 5245 5245 5244 5243 5241 5238 5236 5233 5230 5227 5224 5220 5217 5213 5209 5205 5201 5196 5192 5187 5183 5179 5175 5171 5168 5167 5165 5165 5164 5163 5161 5160 5159 5157 5155 5153 5151 5148 5146 5144 5142
5242 5243 5244 5244 5245 5246 5246 5247 5246 5246 5247 5247 5247 5247 5246 5245 5244 5243 5242 5242 5242 5242 5242 5241 5241 5240 5238 5236 5233 5231 5228 5225 5222 5218 5215 5211 5207 5203 5199 5195 5191 5187 5183 5179 5176 5172 5168 5166 5165 5164 5164 5163 5162 5161 5159 5158 5157 5155 5154 5152 5151 5149 5148
5236 5237 5238 5239 5240 5240 5241 5241 5241 5241 5242 5242 5242 5242 5242 5241 5240 5239 5238 5238 5238 5238 5238 5238 5238 5237 5235 5233 5231 5228 5225 5222 5219 5216 5213 5209 5205 5201 5198 5194 5190 5186 5183 5180 5176 5172 5169 5166 5164 5164 5163 5163 5162 5161 5160 5159 5158 5157 5156 5155 5154 5153 5152
5230 5231 5232 5233 5234 5235 5236 5236 5236 5237 5237 5237 5237 5237 5237 5236 5235 5235 5234 5234 5234 5235 5235 5235 5235 5234 5232 5230 5228 5226 5223 5220 5217 5214 5211 5207 5204 5200 5196 5193 5189 5186 5183 5179 5176 5173 5170 5166 5164 5163 5163 5162 5162 5162 5161 5160 5159 5159 5158 5157 5157 5156 5156
5223 5225 5226 5227 5229 5230 5231 5231 5232 5232 5233 5233 5233 5233 5232 5231 5231 5231 5231 5231 5231 5232 5232 5232 5232 5231 5230 5228 5226 5224 5221 5218 5215 5212 5209 5205 5202 5199 5196 5192 5188 5185 5182 5179 5176 5173 5170 5167 5164 5162 5162 5162 5162 5161 5161 5161 5160 5160 5160 5159 5159 5159 5159
5217 5218 5220 5222 5224 5225 5226 5227 5228 5228 5228 5228 5228 5228 5227 5227 5226 5227 5227 5227 5228 5229 5229 5230 5229 5228 5227 5225 5223 5221 5219 5216 5213 5210 5207 5204 5201 5198 5195 5191 5188 5184 5181 5178 5176 5173 5170 5168 5165 5162 5161 5161 5161 5161 5161 5161 5161 5161 5161 5161 5161 5161 5161
5213 5215 5217 5219 5220 5221 5222 5223 5224 5224 5224 5224 5224 5223 5223 5222 5222 5223 5224 5224 5225 5226 5227 5227 5226 5226 5224 5223 5221 5218 5216 5214 5211 5208 5206 5202 5200 5197 5193 5190 5187 5184 5181 5178 5176 5173 5171 5168 5166 5163 5161 5160 5160 5160 5161 5161 5161 5162 5162 5162 5162 5162 5162